Location: Paris
(48.6709°N, 2.3750°E)
Time: 20:09:57
(UTC+01:00)

ISS - Pass Details

Date: 30 October 2021
Orbit: 417 x 422 km, 51.6° (Epoch: 04 December)

Event Time Altitude Azimuth Distance (km) Brightness Sun altitude
Exits shadow 05:44:19 19° 71° (ENE) 1,055 -1.0 -28.4°
Drops below altitude 10° 05:45:26 10° 70° (ENE) 1,501 0.0 -28.2°
Sets 05:47:32 0° 69° (ENE) 2,366 1.3 -27.9°
